Location: Unspecified
(0.0000°N, 0.0000°E)
Time: 22:20:20
(UTC+00:00)

S-56A Canister/Altair - Pass Details

Date: 15 December 2018
Orbit: 633 x 2500 km, 38.9° (Epoch: 18 January)

Event Time Altitude Azimuth Distance (km) Brightness Sun altitude
Rises 11:39:13 0° 306° (NW) 6,145 12.0 66.4°
Reaches altitude 10° 11:43:27 10° 304° (NW) 5,053 11.7 66.6°
Maximum altitude 11:57:33 68° 224° (SW) 2,113 11.7 66.7°
Drops below altitude 10° 12:07:32 10° 142° (SE) 3,684 11.4 66.5°
Sets 12:10:09 0° 139° (SE) 4,440 11.6 66.4°
